This is the latest recevied weather packets stored in our database for station/object WA4IKQ. If no packets are shown the sender has not sent any weather packets the latest 10 day(s).
| Time | Temp. | Humidity | Pressure | Rain* | Wind** | Luminosity | Snow |
|---|---|---|---|---|---|---|---|
| 1777586872 | 30.56° C | 42% | 1008.9 hPa | 0 mm | 1.34 m/s, 222° | - | - |
| 1777586627 | 31.11° C | 42% | 1008.8 hPa | 0 mm | 2.68 m/s, 184° | - | - |
| 1777586326 | 31.11° C | 42% | 1008.9 hPa | 0 mm | 2.68 m/s, 190° | - | - |
| 1777586272 | 31.11° C | 42% | 1008.9 hPa | 0 mm | 2.68 m/s, 190° | - | - |
| 1777586014 | 31.11° C | 41% | 1009 hPa | 0 mm | 2.24 m/s, 252° | - | - |
| 1777585970 | 31.11° C | 41% | 1009 hPa | 0 mm | 2.24 m/s, 252° | - | - |
| 1777585743 | 31.11° C | 40% | 1008.8 hPa | 0 mm | 1.79 m/s, 229° | - | - |
| 1777585675 | 31.11° C | 40% | 1008.8 hPa | 0 mm | 1.79 m/s, 229° | - | - |
| 1777585417 | 31.67° C | 40% | 1008.9 hPa | 0 mm | 3.58 m/s, 269° | - | - |
| 1777585373 | 31.67° C | 40% | 1008.9 hPa | 0 mm | 3.58 m/s, 269° | - | - |
| 1777585138 | 31.67° C | 40% | 1008.8 hPa | 0 mm | 2.68 m/s, 215° | - | - |
| 1777585104 | 31.67° C | 40% | 1008.8 hPa | 0 mm | 2.68 m/s, 215° | - | - |
| 1777585071 | 31.67° C | 40% | 1008.8 hPa | 0 mm | 2.68 m/s, 215° | - | - |
| 1777584884 | 31.67° C | 40% | 1008.7 hPa | 0 mm | 1.79 m/s, 281° | - | - |
| 1777584771 | 31.67° C | 40% | 1008.7 hPa | 0 mm | 1.79 m/s, 281° | - | - |
| 1777584560 | 31.67° C | 40% | 1008.8 hPa | 0 mm | 2.68 m/s, 311° | - | - |
| 1777584529 | 31.67° C | 40% | 1008.8 hPa | 0 mm | 2.68 m/s, 311° | - | - |
| 1777584471 | 31.67° C | 40% | 1008.8 hPa | 0 mm | 2.68 m/s, 311° | - | - |
| 1777584207 | 32.22° C | 39% | 1008.8 hPa | 0 mm | 2.68 m/s, 256° | - | - |
| 1777584174 | 32.22° C | 39% | 1008.8 hPa | 0 mm | 2.68 m/s, 256° | - | - |
| 1777583934 | 32.22° C | 39% | 1008.9 hPa | 0 mm | 2.68 m/s, 239° | - | - |
| 1777583877 | 32.22° C | 39% | 1008.9 hPa | 0 mm | 2.68 m/s, 239° | - | - |
| 1777583637 | 32.22° C | 39% | 1009 hPa | 0 mm | 0.89 m/s, 264° | - | - |
| 1777583603 | 32.22° C | 39% | 1009 hPa | 0 mm | 0.89 m/s, 264° | - | - |
| 1777583569 | 32.22° C | 39% | 1009 hPa | 0 mm | 0.89 m/s, 264° | - | - |
* Rain latest hour (hover to see other rain measurements)
** Current wind speed in m/s (hover to see current wind gust speed)